Home   Weather   Fagernes   Past weeks

Flag for Norway Past Weather in Fagernes, Norway — Yesterday and Last 2 Weeks

Now
24 °F

Passing clouds.


Feels Like: 24 °F
Forecast: 16 / 30 °F
Wind: No wind

Location: Fagernes

Current Time: Jan 22, 2017 at 5:09:06 am

Latest Report: Jan 22, 2017 at 4:00 am


Visibility: 47 mi

Pressure: 30.32 "Hg

Humidity: 95%

Dew Point: 23 °F

Location of FagernesLocation

Past Weather in Fagernes — Graph

°F

Fagernes Temperature Yesterday

Maximum temperature yesterday: 46 °F (at 5:00 am)
Minimum temperature yesterday: 27 °F (at 11:00 pm)
Average temperature yesterday: 35 °F

High & Low Weather Summary for the Past Weeks

 TemperatureHumidityPressure
High49 °F (Jan 19, 3:00 pm)95% (Jan 11, 8:00 pm)30.55 "Hg (Jan 11, 8:00 pm)
Low4 °F (Jan 16, 9:00 am)53% (Jan 19, 4:00 pm)28.58 "Hg (Jan 11, 2:00 pm)
Average24 °F86%29.89 "Hg
* Reported Jan 7 3:00 am — Jan 22 3:00 am, Fagernes, Weather by CustomWeather, © 2017

Note: Actual official high and low records may vary slightly from our data, if they occured in-between our weather recording intervals... More about our weather records

Advertising

Fagernes Weather History for the Previous 24 Hours

Scroll right to see more
 ConditionsComfort  
Time TempWeatherWind HumidityBarometerVisibility
3:00 am
Sun, Jan 22
24 °FCold.No wind95%30.34 "HgN/A
2:00 am26 °FChilly.No wind95%30.35 "HgN/A
1:00 am25 °FClear.No wind95%30.36 "Hg47 mi
12:00 am26 °FChilly.No wind95%30.37 "HgN/A
11:00 pm
Sat, Jan 21
27 °FChilly.No wind93%30.38 "HgN/A
10:00 pm28 °FChilly.No wind92%30.38 "HgN/A
9:00 pm28 °FChilly.No wind93%30.39 "HgN/A
8:00 pm29 °FChilly.No wind94%30.39 "HgN/A
7:00 pm28 °FChilly.No wind93%30.39 "HgN/A
6:00 pm30 °FChilly.No wind91%30.39 "HgN/A
5:00 pm31 °FChilly.No wind90%30.39 "HgN/A
4:00 pm31 °FPartly sunny.No wind88%30.39 "Hg34 mi
3:00 pm32 °FChilly.No wind86%30.39 "HgN/A
2:00 pm32 °FChilly.No wind86%30.40 "HgN/A
1:00 pm33 °FPartly sunny.No wind81%30.40 "Hg47 mi
12:00 pm33 °FChilly.No wind81%30.41 "HgN/A
11:00 am37 °FChilly.1 mph71%30.40 "HgN/A
10:00 am37 °FChilly.No wind73%30.39 "HgN/A
9:00 am38 °FChilly.No wind68%30.37 "HgN/A
8:00 am41 °FQuite cool.1 mph63%30.34 "HgN/A
7:00 am43 °FClear.No wind58%30.33 "Hg47 mi
6:00 am43 °FQuite cool.1 mph59%30.33 "HgN/A
5:00 am46 °FCool.1 mph56%30.31 "HgN/A
Weather by CustomWeather, © 2017

See weather overviewHow to use our weather pages